Погода в Гудермесе

Погода в Гудермесе : погода сейчас, прогноз погоды и архив. Всё, что Вы хотите узнать о погоде в Гудермесе!

Поиск расширенной информации на нашем сайте:

Другие новости

Новости СМИ2

Главная страница сайта

Новости сайта

02.10.2013

Напоминаем, что на нашем новом сайте вы можете получить высокодетализированные прогнозы погоды по пунктам России, СНГ и мира (включающие важные для авиации метеовеличины, такие как направление и скорость ветра, видимость, явления погоды, количество и форма облачности, нижняя и верхняя граница облачности), а также ознакомиться с разнообразными материалами по авиационной метеорологии и подборкой полезных ссылок на эту тему.

Сайт Метеоцентр.Азия посвящён разработке технологий оптимизации авиаметеорологического обслуживания, включая проектирование и перспективное создание нескольких автоматизированных авиаметеорологических систем:
- система выпуска высокодетальных прогностических карт явлений погоды для нижнего воздушного пространства по России и ближнему зарубежью;
- система верификации прогнозов TAF (выпускаемых синоптиками официальных АМСГ РФ и ближнего зарубежья) и AUTOTAF (выпускаемых сайтом Метеоцентр.Азия) - выявление ошибок, онлайн-сопоставление с фактической погодой METAR, автоматическое внесение коррективов в прогнозы при резком отклонении фактической погоды от прогноза, подсчёт оправдываемости прогнозов по элементам и в целом;
- система обработки, анализа и отображения авиаметеорологической информации для применения провайдерами метеорологической информации.


Погода в Гудермесе - сегодня

Время (UTC), дата Ветер
(°,м/с) 
Видим.   Явления Облачность Т
(°С)
Тd
(°С)
f(%) Тe
(°С)
Pmin
(гПа)
dP
(гПа)
Po
(мм)
O2
(г/м3)
Тmin Tmax R s Состояние
почвы
09 25.06.17 350 (С) 20000 м    9/0 средняя 
[Ac lent]
+27.1 +15.6 49 +37  1012.4  753  273           
12 25.06.17 250 (З) 20000 м    4/4 1000 м 
[Cu med, cong]
+29.7 +13.1 36 +35  1012.1  -0.2  753  271           
15 25.06.17 150 (ЮВ) 20000 м    9/6 600 м кучево-дожд., средняя 
[Cb cap|Ac inh]
+25.5 +16.1 56 +36  1013.2  0.9  753  274    +30.5       
18 25.06.17 210 (ЮЗ) 10 км    9/8 600 м кучево-дожд., средняя 
[Cb cap|Ac inh]
+23.1 +16.5 66 +34  1016.5  3.3  756  277           
21 25.06.17 260 (З) 10 км    6/0 средняя 
[Ac lent]
+21.1 +17.2 78 +34  1017.7  1.1  757  279           
00 26.06.17 тихо ()   10 км    9/0 средняя 
[Ac trans]
+19.9 +16.5 81 +31  1018.2  0.5  757  281           
03 26.06.17 080 (В) 20000 м    5/5 1000 м 
[Sc]
+20.5 +17 80 +33  1018.6  0.4  757  280  +19.6        сухая 
06 26.06.17 080 (В) 20000 м    ясно 
+24.4 +12.9 49 +29  1017.9  -0.6  757  278           
09 26.06.17 070 (В) 20000 м    ясно 
+27 +10.7 36 +29  1017  -0.9  756  275           
12 26.06.17 080 (В) 20000 м    ясно 
+27.5 +12.5 39 +32  1016.2  -0.7  756  274           
15 26.06.17 090 (В) 5{10}  20000 м    ясно 
+25.4 +12.8 46 +30  1015.8  -0.4  755  276    +27.9       
18 26.06.17 090 (В) 10 км    ясно 
+20.3 +12.4 60 +25  1015.8  0.1  755  281           
21 26.06.17 090 (В) 10 км    ясно 
+17.5 +15 85 +27  1015.1  -0.8  755  283           
00 27.06.17 090 (В) 4000 м  дымка  10/10 600 м 
[St]
+18 +16.1 89 +29  1013.7  -1.4  754  281           
03 27.06.17 060 (СВ) 10 км    10/10 600 м 
[St]
+18.6 +16.3 86 +31  1013.6  0.1  754  281  +17.3        сухая 
06 27.06.17 260 (З) 20000 м    ясно 
+22.3 +16.3 69 +33  1013.2  -0.2  753  277           
09 27.06.17 110 (В) 20000 м    ясно 
+28.1 +16.9 51 +40  1011.4  -1.7  752  271           
12 27.06.17 110 (В) 20000 м    ясно 
+30.8 +17.2 44 +44  1009.1  -2.1  751  268           
15 27.06.17 060 (СВ) 20000 м    ясно 
+28.3 +18.6 56 +44  1008.9  -0.3  750  270    +31.3       
18 27.06.17 080 (В) 10 км  зарница  4/4 600 м кучево-дожд. 
[Cb calv]
+23.4 +18.4 74 +38  1011.8  2.7  752  275           
21 27.06.17 070 (В) 4000 м  дымка  ясно 
+20.7 +18.2 86 +35  1010.5  -1.3  751  277           
00 28.06.17 тихо ()   4000 м  дымка  ясно 
+19.6 +17.8 89 +33  1010.3  -0.2  751  278           
03 28.06.17 100 (В) 4000 м  дымка  9/9 1000 м 
[Sc]
+21.2 +18.7 86 +37  1010  -0.2  751  276  +19.1        сухая 
06 28.06.17 330 (СЗ) 20000 м    8/0 средняя 
[Ac cast]
+24.3 +19.3 74 +41  1010.5  0.6  751  273           
09 28.06.17 300 (СЗ) 20000 м    9/6 600 м кучево-дожд., средняя 
[Cb cap|Ac inh]
+28.1 +19.5 60 +46  1010.1  -0.3  751  270           
Время (UTC), дата Ветер
(°,м/с) 
Видим.   Явления Облачность Т
(°С)
Тd
(°С)
f(%) Тe
(°С)
Pmin
(гПа)
dP
(гПа)
Po
(мм)
O2
(г/м3)
Тmin Tmax R s Состояние
почвы

Для получения пояснительной информации подведите курсор к названию столбца.

ПОГОДА в Гудермесе - архив

Всё, что Вы хотите узнать о погоде в Гудермесе - удобно и подробно!

Выберите нужную дату (начиная с 1 января 2015* года) и нажмите кнопку "Найти".
Будут отображены архивные сводки погоды по пункту Гудермес, начиная с указанной даты.


Отображать данные в формате CSV (для использования в таблицах Excel)


Внимание! Наш архив погоды предназначен исключительно для личного некоммерческого использования в познавательных целях. Если Вам необходимы официальные справки о состоянии погоды (для производственных, юридических, коммерческих и т.п. целей), обращайтесь в органы Росгидромета.

*Примечание: данная дата относится к архиву по метеостанциям СССР (Россия, СНГ, Балтия).
Архив по метеостанциям Зарубежной Европы и Азии (кроме Китая) хранится 10 дней, по другим регионам земного шара (Китай, Африка, Америка, Австралия, Океания) - 1 день.

Гудермес - район местоположения метеостанции


Название, широта, долгота, высота метеостанции:
Гудермес 43.3°ш. 46.1°д. 75 м над ур. моря [Российская Федерация]

Дополнительная информация

В oтличие oт бoльшинства пoгoдных сайтoв мы публикуем пoдрoбную метеoинфoрмацию в детальнoм прoфессиoнальнoм фoрмате.

Характеристики температуры и влажнoсти вoздуха измеряются на высoте 2 м в тени вдали oт зданий и деревьев.
Скoрoсть ветра измеряется на высoте 10 м (на урoвне рoста челoвека скoрoсть ветра ниже в 1.5-2 раза). Если метеoстанция нахoдится в гoрoде или в лесу, тo скoрoсть ветра занижена на 2-4 м/с пo сравнению с oткрытым местoм. Скoрoсть ветра над акватoриями крупных рек и oзёр, а также на вершинах хoлмoв на 2-5 м/с выше, чем в oбычных услoвиях.
Атмoсфернoе давление в разных тoчках местнoсти мoжет значительнo oтличаться oт давления на метеoстанции, в зависимoсти oт услoвий рельефа (при пoдъёме на 10 м давление пoнижается примернo на 1 мм рт.ст.).